Flag for Dominican Republic Weather past 2 weeks in Puerto Plata, Dominican Republic

Now
79 °F

Scattered clouds.


Feels Like: 82 °F
Forecast: 80 / 89 °F
Wind: No wind

Location: Puerto Plata International

Current Time: Jul 25, 2014 at 7:18:30 AM

Latest Report: Jul 25, 2014 at 7:00 AM


Visibility: N/A

Pressure: 30.04 "Hg

Humidity: 89%

Dew point: 75 °F

Location of Puerto PlataLocation

Historic Weather in Puerto Plata — Graph

°F

Puerto Plata temperature yesterday

Maximum temperature yesterday: 91 °F (at 12:00 PM)
Minimum temperature yesterday: 77 °F (at 7:00 AM)
Average temperature yesterday: 86 °F

Past Weeks' High & Low Weather Summary

 TemperatureHumidityPressure
High99 °F (Jul 16, 2:00 PM)100% (Jul 14, 5:00 AM)30.09 "Hg (Jul 14, 5:00 AM)
Low73 °F (Jul 14, 5:00 AM)42% (Jul 16, 2:00 PM)29.92 "Hg (Jul 15, 6:00 PM)
Average86 °F70%30.02 "Hg
* Reported Jul 10 5:00 AM — Jul 25 5:00 AM, Puerto Plata, Weather by CustomWeather, © 2014

Note: Actual official high and low records may vary slightly from our data, if they occured in-between our weather recording intervals... More about our weather records

Advertising

Puerto Plata weather history for previous 24 hours

 ConditionsComfort  
Time TempWeatherWind HumidityBarometerVisibility
5:00 AM
Jul 25
79 °FPassing clouds.No wind89%30.04 "HgN/A
2:00 AM79 °FPassing clouds.No wind89%30.04 "HgN/A
11:00 PM
Jul 24
81 °FPassing clouds.No wind84%30.07 "HgN/A
8:00 PM82 °FPassing clouds.No wind84%30.04 "HgN/A
7:00 PM84 °FPassing clouds.No wind74%30.01 "HgN/A
6:00 PM86 °FPassing clouds.23 mph70%30.01 "HgN/A
5:00 PM90 °FPassing clouds.21 mph63%29.98 "HgN/A
4:00 PM90 °FPassing clouds.17 mph59%30.01 "HgN/A
3:00 PM91 °FPassing clouds.18 mph56%30.04 "HgN/A
2:00 PM91 °FPassing clouds.18 mph59%30.01 "HgN/A
1:00 PM91 °FScattered clouds.14 mph59%30.04 "HgN/A
12:00 PM91 °FScattered clouds.16 mph59%30.04 "HgN/A
11:00 AM90 °FScattered clouds.14 mph63%30.04 "HgN/A
10:00 AM88 °FScattered clouds.14 mph66%30.04 "HgN/A
9:00 AM82 °FPassing clouds.12 mph84%30.04 "HgN/A
8:00 AM81 °FPassing clouds.No wind89%30.04 "HgN/A
7:00 AM77 °FPassing clouds.No wind94%30.01 "HgN/A
Weather by CustomWeather, © 2014

See weather overviewHow to use our weather pages